This is the latest recevied weather packets stored in our database for station/object LROP. If no packets are shown the sender has not sent any weather packets the latest 10 day(s).
| Time | Temp. | Humidity | Pressure | Rain* | Wind** | Luminosity | Snow |
|---|---|---|---|---|---|---|---|
| 1777798083 | 12.78° C | 38% | 1023 hPa | - | - | - | - |
| 1777797181 | 12.78° C | 38% | 1023 hPa | - | - | - | - |
| 1777796283 | 12.22° C | 41% | 1023 hPa | - | - | - | - |
| 1777795392 | 12.22° C | 41% | 1023 hPa | - | - | - | - |
| 1777794482 | 12.22° C | 41% | 1023 hPa | - | - | - | - |
| 1777793582 | 12.22° C | 41% | 1023 hPa | - | - | - | - |
| 1777792684 | 11.11° C | 47% | 1023 hPa | - | - | - | - |
| 1777791783 | 11.11° C | 47% | 1023 hPa | - | - | - | - |
| 1777790883 | 10° C | 54% | 1023 hPa | - | - | - | - |
| 1777790018 | 10° C | 54% | 1023 hPa | - | - | - | - |
| 1777789083 | 8.89° C | 66% | 1023 hPa | - | - | - | - |
| 1777788182 | 8.89° C | 66% | 1023 hPa | - | - | - | - |
| 1777787282 | 7.78° C | 66% | 1023 hPa | - | - | - | - |
| 1777786382 | 7.78° C | 66% | 1023 hPa | - | - | - | - |
| 1777785482 | 7.22° C | 71% | 1023 hPa | - | - | - | - |
| 1777784582 | 7.22° C | 71% | 1023 hPa | - | - | - | - |
| 1777783682 | 5° C | 81% | 1023 hPa | - | - | - | - |
| 1777782783 | 5° C | 81% | 1023 hPa | - | - | - | - |
| 1777781882 | 5° C | 81% | 1022 hPa | - | - | - | - |
| 1777781005 | 5° C | 81% | 1022 hPa | - | - | - | - |
| 1777780084 | 2.78° C | 93% | 1022 hPa | - | - | - | - |
| 1777779182 | 2.78° C | 93% | 1022 hPa | - | - | - | - |
| 1777778282 | 3.89° C | 81% | 1022 hPa | - | - | - | - |
| 1777777382 | 3.89° C | 81% | 1022 hPa | - | - | - | - |
| 1777776497 | 3.89° C | 81% | 1022 hPa | - | - | - | - |
* Rain since midnight (hover to see other rain measurements)
** Current wind speed in m/s (hover to see current wind gust speed)